When you browse on this site, cookies collect data to enhance your experience and personalize the content and advertising you see.
Visit our Privacy Policy to learn more. By continuing to use the site, you agree to this use of cookies and data.
  • In Latvia
  • List of Countries
  • For 7 days
  • Water Temperature
  • Satellite Maps
  • Weather Map
  • Weather Widgets
  • user-avatar
    Login

    Hourly Weather Jezyk

    Today, 19 June, Wednesday

    Time Temperature Precipitation Wind Pressure Humidity
    00:00 +19°C° 0 mm 3 mps 744 mmHg 95%
    01:00 +19°C° 0 mm 3 mps 744 mmHg 96%
    02:00 +18°C° 0 mm 3 mps 744 mmHg 96%
    03:00 +18°C° 0 mm 3 mps 744 mmHg 96%
    04:00 +18°C° 0 mm 3 mps 743 mmHg 96%
    05:00 +18°C° 0 mm 3 mps 743 mmHg 97%
    06:00 +19°C° 0 mm 3 mps 743 mmHg 94%
    07:00 +20°C° 0 mm 4 mps 743 mmHg 91%
    08:00 +22°C° 0 mm 4 mps 743 mmHg 88%
    09:00 +23°C° 0.2 mm 4 mps 743 mmHg 85%
    10:00 +25°C° 0.2 mm 4 mps 743 mmHg 82%
    11:00 +26°C° 0.2 mm 4 mps 743 mmHg 79%
    12:00 +27°C° 1.1 mm 3 mps 742 mmHg 75%
    13:00 +28°C° 1.1 mm 3 mps 742 mmHg 71%
    14:00 +28°C° 1.1 mm 2 mps 742 mmHg 66%
    15:00 +28°C° 0.2 mm 2 mps 742 mmHg 68%
    16:00 +28°C° 0.2 mm 2 mps 741 mmHg 70%
    17:00 +28°C° 0.2 mm 3 mps 741 mmHg 72%
    18:00 +27°C° 0.3 mm 3 mps 741 mmHg 76%
    19:00 +25°C° 0.3 mm 3 mps 741 mmHg 81%
    20:00 +24°C° 0.3 mm 3 mps 740 mmHg 86%
    21:00 +22°C° 0 mm 3 mps 740 mmHg 87%
    22:00 +21°C° 0 mm 3 mps 741 mmHg 89%
    23:00 +21°C° 0 mm 2 mps 741 mmHg 90%

    Tomorrow, 20 June, Thursday

    Time Temperature Precipitation Wind Pressure Humidity
    00:00 +20°C° 0 mm 2 mps 740 mmHg 90%
    01:00 +20°C° 0 mm 2 mps 740 mmHg 90%
    02:00 +20°C° 0 mm 2 mps 740 mmHg 89%
    03:00 +20°C° 0 mm 2 mps 740 mmHg 89%
    04:00 +19°C° 0 mm 2 mps 740 mmHg 89%
    05:00 +20°C° 0 mm 1 mps 740 mmHg 89%
    06:00 +21°C° 0 mm 2 mps 740 mmHg 86%
    07:00 +23°C° 0 mm 2 mps 741 mmHg 83%
    08:00 +25°C° 0 mm 2 mps 741 mmHg 79%
    09:00 +25°C° 0 mm 2 mps 741 mmHg 76%
    10:00 +26°C° 0 mm 3 mps 741 mmHg 72%
    11:00 +27°C° 0 mm 3 mps 741 mmHg 69%
    12:00 +28°C° 0 mm 3 mps 741 mmHg 65%
    13:00 +29°C° 0 mm 3 mps 740 mmHg 61%
    14:00 +30°C° 0 mm 3 mps 740 mmHg 58%
    15:00 +29°C° 0.1 mm 3 mps 740 mmHg 59%
    16:00 +29°C° 0.1 mm 3 mps 740 mmHg 61%
    17:00 +29°C° 0.1 mm 3 mps 740 mmHg 63%
    18:00 +27°C° 0.7 mm 3 mps 740 mmHg 70%
    19:00 +25°C° 0.7 mm 2 mps 740 mmHg 77%
    20:00 +24°C° 0.7 mm 2 mps 740 mmHg 84%
    21:00 +23°C° 0 mm 2 mps 740 mmHg 84%
    22:00 +21°C° 0 mm 2 mps 740 mmHg 84%
    23:00 +21°C° 0 mm 2 mps 741 mmHg 84%

    Day after tomorrow, 21 June, Friday

    Time Temperature Precipitation Wind Pressure Humidity
    00:00 +20°C° 0 mm 2 mps 741 mmHg 84%
    01:00 +21°C° 0 mm 1 mps 741 mmHg 85%
    02:00 +21°C° 0 mm 1 mps 741 mmHg 86%
    03:00 +20°C° 0 mm 1 mps 741 mmHg 86%
    04:00 +20°C° 0 mm 1 mps 741 mmHg 87%
    05:00 +20°C° 0 mm 1 mps 741 mmHg 87%
    06:00 +21°C° 0 mm 1 mps 741 mmHg 84%
    07:00 +23°C° 0 mm 1 mps 741 mmHg 80%
    08:00 +24°C° 0 mm 1 mps 742 mmHg 77%
    09:00 +26°C° 0 mm 1 mps 742 mmHg 73%
    10:00 +27°C° 0 mm 2 mps 742 mmHg 69%
    11:00 +28°C° 0 mm 2 mps 742 mmHg 65%
    12:00 +28°C° 0.2 mm 1 mps 742 mmHg 62%
    13:00 +29°C° 0.2 mm 1 mps 742 mmHg 60%
    14:00 +30°C° 0.2 mm 1 mps 742 mmHg 57%
    15:00 +29°C° 0.5 mm 1 mps 741 mmHg 60%
    16:00 +29°C° 0.5 mm 1 mps 741 mmHg 62%
    17:00 +29°C° 0.5 mm 1 mps 741 mmHg 64%
    18:00 +27°C° 0.2 mm 1 mps 741 mmHg 69%
    19:00 +26°C° 0.2 mm 1 mps 741 mmHg 73%
    20:00 +25°C° 0.2 mm 1 mps 741 mmHg 78%
    21:00 +24°C° 0.1 mm 1 mps 741 mmHg 80%
    22:00 +23°C° 0.1 mm 1 mps 741 mmHg 82%
    23:00 +22°C° 0.1 mm 1 mps 742 mmHg 84%

    22 June, Saturday

    Time Temperature Precipitation Wind Pressure Humidity
    00:00 +22°C° 0 mm 1 mps 742 mmHg 84%
    01:00 +22°C° 0 mm 1 mps 742 mmHg 84%
    02:00 +20°C° 0 mm 2 mps 742 mmHg 84%
    03:00 +20°C° 0.1 mm 2 mps 742 mmHg 86%
    04:00 +21°C° 0.1 mm 1 mps 742 mmHg 87%
    05:00 +21°C° 0.1 mm 1 mps 742 mmHg 89%
    06:00 +20°C° 0.1 mm 2 mps 742 mmHg 90%
    07:00 +20°C° 0.1 mm 2 mps 742 mmHg 91%
    08:00 +21°C° 0.1 mm 2 mps 742 mmHg 92%
    09:00 +21°C° 0.5 mm 3 mps 742 mmHg 91%
    10:00 +22°C° 0.5 mm 3 mps 742 mmHg 90%
    11:00 +22°C° 0.5 mm 4 mps 742 mmHg 89%
    12:00 +24°C° 0.8 mm 3 mps 742 mmHg 88%
    13:00 +24°C° 0.8 mm 3 mps 742 mmHg 87%
    14:00 +24°C° 0.8 mm 2 mps 742 mmHg 86%
    15:00 +24°C° 1 mm 2 mps 742 mmHg 85%
    16:00 +25°C° 1 mm 2 mps 742 mmHg 84%
    17:00 +25°C° 1 mm 2 mps 742 mmHg 82%
    18:00 +24°C° 0.4 mm 2 mps 742 mmHg 85%
    19:00 +23°C° 0.4 mm 2 mps 741 mmHg 87%
    20:00 +23°C° 0.4 mm 2 mps 741 mmHg 89%
    21:00 +22°C° 0.1 mm 1 mps 741 mmHg 90%
    22:00 +22°C° 0.1 mm 1 mps 741 mmHg 91%
    23:00 +19°C° 0.1 mm 0 mps 741 mmHg 92%

    23 June, Sunday

    Time Temperature Precipitation Wind Pressure Humidity
    00:00 +21°C° 0 mm 1 mps 741 mmHg 93%
    01:00 +20°C° 0 mm 1 mps 741 mmHg 93%
    02:00 +20°C° 0 mm 1 mps 741 mmHg 94%
    03:00 +20°C° 0.3 mm 1 mps 741 mmHg 94%
    04:00 +20°C° 0.3 mm 1 mps 741 mmHg 95%
    05:00 +19°C° 0.3 mm 1 mps 741 mmHg 96%
    06:00 +19°C° 0.2 mm 2 mps 741 mmHg 93%
    07:00 +21°C° 0.2 mm 2 mps 741 mmHg 90%
    08:00 +23°C° 0.2 mm 2 mps 741 mmHg 86%
    09:00 +24°C° 0 mm 2 mps 741 mmHg 81%
    10:00 +25°C° 0 mm 2 mps 741 mmHg 76%
    11:00 +26°C° 0 mm 3 mps 741 mmHg 70%
    12:00 +27°C° 0.6 mm 3 mps 741 mmHg 71%
    13:00 +27°C° 0.6 mm 3 mps 741 mmHg 71%
    14:00 +27°C° 0.6 mm 4 mps 741 mmHg 72%
    15:00 +25°C° 1.7 mm 5 mps 741 mmHg 78%
    16:00 +23°C° 1.7 mm 5 mps 741 mmHg 84%
    17:00 +21°C° 1.7 mm 6 mps 741 mmHg 89%
    18:00 +20°C° 0 mm 6 mps 741 mmHg 89%
    19:00 +19°C° 0 mm 6 mps 741 mmHg 89%
    20:00 +17°C° 0 mm 5 mps 742 mmHg 88%
    21:00 +17°C° 0 mm 5 mps 742 mmHg 88%
    22:00 +16°C° 0 mm 5 mps 742 mmHg 88%
    23:00 +16°C° 0 mm 5 mps 743 mmHg 87%

    24 June, Monday

    Time Temperature Precipitation Wind Pressure Humidity
    00:00 +16°C° 0.1 mm 5 mps 743 mmHg 89%
    01:00 +16°C° 0.1 mm 5 mps 743 mmHg 90%
    02:00 +16°C° 0.1 mm 5 mps 743 mmHg 91%
    03:00 +16°C° 0.6 mm 5 mps 743 mmHg 93%
    04:00 +15°C° 0.6 mm 5 mps 744 mmHg 94%
    05:00 +15°C° 0.6 mm 6 mps 744 mmHg 96%
    06:00 +15°C° 0.7 mm 6 mps 744 mmHg 96%
    07:00 +15°C° 0.7 mm 6 mps 745 mmHg 95%
    08:00 +15°C° 0.7 mm 7 mps 745 mmHg 95%
    09:00 +15°C° 0.4 mm 6 mps 746 mmHg 95%
    10:00 +14°C° 0.4 mm 6 mps 746 mmHg 95%
    11:00 +14°C° 0.4 mm 6 mps 746 mmHg 95%
    12:00 +14°C° 0.2 mm 6 mps 747 mmHg 94%
    13:00 +14°C° 0.2 mm 6 mps 747 mmHg 93%
    14:00 +14°C° 0.2 mm 5 mps 747 mmHg 93%
    15:00 +15°C° 0 mm 5 mps 748 mmHg 90%
    16:00 +17°C° 0 mm 4 mps 748 mmHg 88%
    17:00 +17°C° 0 mm 4 mps 748 mmHg 86%
    18:00 +17°C° 0 mm 3 mps 748 mmHg 85%
    19:00 +17°C° 0 mm 2 mps 748 mmHg 85%
    20:00 +17°C° 0 mm 2 mps 748 mmHg 84%
    21:00 +17°C° 0 mm 2 mps 749 mmHg 84%
    22:00 +17°C° 0 mm 2 mps 749 mmHg 83%
    23:00 +17°C° 0 mm 3 mps 749 mmHg 83%
    Show more